< < Back
Terminal Aerodrome Forecast


Current Version              Previous Versions:   1  2  3  4  5  6  7  8  9  

Terminal Aerodrome Forecast

140
FTUS42 KGSP 271740
TAFHKY
TAF
KHKY 271740Z 2718/2818 27004KT P6SM SCT050
      TEMPO 2720/2724 VRB10G15KT 4SM -TSRA BKN060CB
     FM280000 VRB02KT P6SM VCTS SCT070CB SCT250
     FM280300 18004KT P6SM SCT250 PROB30 2803/2809 4SM -TSRA
      BKN250CB
     FM280900 28003KT P6SM VCSH SCT250
     FM281600 23006KT P6SM VCTS SCT035CB=

Latest METAR

220
SAUS70 KWBC 271900 RRL
MTRHKY
METAR KHKY 271853Z 25005KT 10SM BKN070 BKN080 34/22 A2999 RMK AO2 SLP130
T03390217


USA.gov is the U.S. government's official web portal to all federal, state and local government web resources and services.